Wind_Speed
46 47 47 48 50 52 51 46 45 44 43 42 43 44 43 43 44 46 46 43 39 37 36 34 32 30 28 27 24 22 20 19 17 16 15 14 14 13 12 11 9 8 7 6 5 4 4 3 3
45 46 47 50 53 54 51 47 47 46 45 45 45 46 45 45 46 48 47 45 42 39 38 36 34 32 30 28 27 24 22 21 19 18 17 16 15 14 13 12 11 9 8 7 6 5 5 4 4
45 47 48 50 53 53 51 49 49 48 48 47 47 48 47 46 47 48 47 45 43 40 39 38 36 34 32 30 29 26 24 23 21 19 18 17 16 15 14 13 12 11 9 8 7 6 6 5 5
45 46 49 52 53 52 52 50 50 49 50 49 48 49 49 49 49 49 48 46 45 42 41 40 38 36 34 32 30 29 26 25 23 21 19 18 17 16 16 15 14 12 11 10 9 8 7 7 6
43 45 48 51 52 50 51 50 50 49 49 49 50 51 51 50 49 49 50 47 45 44 42 42 40 39 37 35 32 31 29 27 25 23 21 20 19 18 17 16 15 13 12 11 10 9 9 8 8
42 44 47 48 48 48 49 49 49 51 51 49 51 52 52 52 51 51 52 50 46 43 43 43 42 41 39 37 35 32 31 29 28 25 23 22 21 20 18 17 16 15 14 13 11 10 10 9 9
39 41 43 43 43 44 45 46 48 49 49 50 51 52 51 53 51 52 52 51 48 46 45 44 44 43 41 39 37 35 33 31 30 27 25 24 23 21 20 19 18 17 16 14 13 12 11 11 10
37 38 38 40 39 39 42 45 46 48 49 49 51 53 51 53 50 51 53 53 49 48 47 46 45 44 43 41 39 37 35 33 31 30 27 26 24 23 22 21 20 18 17 16 15 14 13 13 12
34 35 35 37 38 37 40 43 43 46 47 49 50 52 53 54 52 52 52 54 50 49 49 47 47 47 45 43 41 39 37 35 33 32 30 28 26 25 23 22 21 20 19 18 17 16 15 15 14
32 33 33 34 36 37 39 42 41 45 46 49 50 50 53 53 54 54 54 55 53 50 49 48 47 48 47 46 44 41 39 37 35 34 32 30 28 26 25 24 23 21 20 19 18 17 17 16 16
30 30 30 33 36 36 38 40 40 45 46 45 48 49 50 53 54 54 53 55 54 52 50 50 50 49 49 48 46 44 42 39 37 35 34 32 30 28 27 26 24 23 22 21 20 19 19 18 17
29 29 30 31 34 34 36 37 39 43 46 45 46 48 50 52 55 56 55 55 55 53 51 51 52 51 51 50 48 46 44 42 40 37 36 34 32 30 28 27 26 25 24 23 22 21 20 20 19
26 26 27 29 32 33 34 37 35 38 44 46 47 47 50 50 54 56 55 56 56 55 54 52 53 52 51 50 50 48 46 45 42 40 38 36 34 32 30 29 28 27 25 25 23 23 22 21 20
23 24 25 26 30 32 34 34 35 35 40 43 45 46 47 50 52 54 54 56 57 57 55 53 53 53 52 52 51 50 48 47 45 42 40 38 36 34 32 31 30 29 28 27 25 24 24 23 22
19 20 20 21 25 27 30 31 31 32 37 41 42 45 48 49 51 53 53 56 57 58 56 54 55 54 54 52 52 51 49 48 47 44 42 40 38 36 35 33 32 31 30 28 27 26 25 24 23
16 15 14 15 19 22 24 26 28 30 34 39 41 42 47 49 49 51 53 56 56 57 56 55 54 55 53 53 52 52 51 50 48 45 43 41 39 38 37 35 34 32 31 30 28 27 27 26 25
14 12 12 13 16 18 20 19 23 27 30 35 39 40 43 47 49 50 51 54 54 55 57 55 54 54 53 53 52 50 50 51 48 46 44 42 40 39 37 36 35 34 33 31 30 29 28 27 27
11 10 11 11 13 15 17 17 18 22 26 30 35 38 40 44 48 49 49 52 54 53 55 56 55 54 53 52 52 50 50 50 49 47 45 44 42 40 39 37 36 36 34 33 32 31 30 30 29
10 9 9 8 10 12 14 14 14 18 21 25 31 36 39 41 44 46 49 51 53 53 54 55 54 52 51 51 50 49 49 49 50 49 48 45 44 42 41 40 39 37 36 35 35 34 33 32 32
8 7 7 8 9 11 11 11 11 14 19 23 26 32 37 40 44 46 46 46 48 50 52 51 52 52 51 49 49 48 47 48 49 49 48 47 46 44 42 41 40 39 38 38 37 36 35 34 34
5 5 5 6 6 7 8 8 9 12 15 21 24 28 34 37 38 40 44 44 44 47 50 50 49 52 52 50 49 50 49 49 48 48 49 48 47 45 44 43 43 42 41 40 38 37 36 37 35
3 3 4 4 4 4 5 6 8 11 12 16 20 24 28 32 36 36 38 41 42 45 46 45 48 50 51 50 50 49 50 48 47 47 47 48 47 45 46 46 45 44 43 42 40 39 39 38 37
3 3 3 3 3 3 3 5 5 8 11 13 16 20 24 27 31 34 35 37 39 42 44 42 45 49 50 48 48 47 49 48 48 48 48 48 47 47 47 47 47 46 45 44 43 42 41 40 39
3 2 3 3 3 3 3 4 3 6 9 12 14 16 20 25 28 30 31 34 36 38 41 43 42 45 48 49 47 48 48 46 46 47 48 48 48 48 48 48 48 48 47 45 44 43 43 41 40
2 1 1 1 1 2 3 4 3 6 7 7 9 11 15 20 24 27 29 32 33 34 37 40 40 41 45 47 47 46 47 46 46 47 48 48 47 49 49 49 49 49 48 48 47 46 44 43 42
3 2 1 2 1 1 2 4 4 5 5 6 7 9 12 16 20 24 28 31 32 32 35 38 39 40 43 45 44 44 43 47 47 47 47 47 46 47 48 49 49 49 49 48 48 47 46 45 44
5 3 2 3 2 1 2 4 5 6 6 7 8 10 12 14 18 23 27 30 30 30 31 33 37 39 40 43 44 44 44 46 46 46 45 46 46 46 46 48 48 48 48 48 48 48 47 46 44
5 4 3 4 3 3 3 4 4 5 5 7 9 11 12 13 15 18 23 26 28 29 30 30 32 34 38 42 43 43 43 46 46 44 42 42 43 46 46 45 45 46 46 47 47 47 47 46 45
8 6 5 5 5 4 4 3 3 4 5 6 9 11 13 14 15 16 18 23 26 28 29 30 31 33 34 36 39 41 41 43 43 43 42 41 41 42 43 45 45 45 45 45 45 46 46 46 46
9 9 7 6 5 6 5 4 4 5 5 6 8 10 13 14 15 16 18 20 23 26 28 30 31 33 34 35 36 37 38 40 42 42 42 42 43 44 45 46 46 46 46 47 48 47 47 46 46
Wind_Direction
262 259 256 254 252 252 253 255 254 251 249 246 244 241 238 236 236 235 232 230 230 227 226 227 228 228 228 229 229 230 232 233 234 234 234 233 234 235 236 236 236 238 240 242 239 232 224 220 215
261 257 255 253 252 252 253 254 253 250 247 244 241 240 237 235 233 234 233 231 229 228 226 227 227 227 228 228 229 229 231 232 233 233 234 234 235 236 235 236 237 239 240 242 242 237 229 226 228
261 257 255 253 253 253 254 253 252 250 246 242 239 237 235 233 231 232 231 230 229 227 225 226 227 227 227 228 228 229 230 231 232 233 234 234 235 237 236 236 238 239 240 242 242 240 234 231 235
261 256 254 252 253 252 251 251 250 248 244 240 237 235 233 233 231 230 230 229 229 226 224 226 226 227 227 228 228 229 230 231 232 233 234 233 234 237 237 237 238 239 240 241 242 242 238 237 240
261 256 254 253 252 252 250 249 246 244 242 237 234 234 232 232 230 229 228 227 227 226 223 224 226 226 227 228 228 229 230 231 232 232 234 234 234 236 237 237 238 238 240 241 243 244 243 243 245
262 258 256 255 254 251 248 246 243 241 238 235 234 233 231 230 229 228 226 226 225 225 223 223 225 226 227 228 228 229 229 230 232 232 233 234 235 236 237 237 238 239 240 242 244 246 246 246 248
263 260 258 257 255 251 245 242 240 238 237 234 233 231 227 229 228 226 225 224 224 225 224 223 224 225 226 227 228 229 229 230 231 232 233 235 236 236 236 237 238 239 241 243 245 247 248 248 249
263 261 259 254 252 248 243 240 238 235 235 233 231 230 227 227 227 225 225 223 222 223 223 223 224 225 226 227 227 228 229 230 231 231 233 234 236 236 236 237 239 240 242 244 245 247 249 249 250
263 261 259 254 251 248 243 240 237 236 234 231 230 229 225 225 225 224 223 222 221 222 222 222 223 224 225 227 227 228 229 230 231 232 233 234 235 236 236 237 239 241 242 245 246 247 249 250 251
266 264 260 255 250 247 242 239 236 234 233 231 228 224 224 224 223 223 221 221 220 222 222 222 223 224 225 226 227 228 228 229 231 232 233 234 234 235 236 238 239 241 243 245 247 248 250 251 252
272 268 262 255 251 248 244 240 236 233 232 230 226 224 223 223 221 221 220 220 221 221 222 224 223 224 225 225 226 228 228 229 231 232 233 233 233 235 237 239 240 242 243 245 247 249 251 252 253
277 271 263 256 251 249 245 241 237 235 232 230 226 226 222 221 220 219 220 219 219 220 221 222 222 224 224 224 225 227 228 229 230 232 232 233 233 235 237 239 241 242 244 245 247 249 251 253 255
277 272 265 258 252 246 244 241 236 235 233 230 228 226 223 219 218 218 218 217 218 219 220 222 221 222 222 221 223 225 227 228 229 230 231 232 233 235 237 239 240 243 244 246 247 249 251 254 256
279 274 270 260 250 246 246 242 238 237 233 230 228 225 223 220 218 217 217 216 218 218 220 220 221 221 222 222 222 224 226 227 228 229 230 231 233 235 237 239 240 242 244 246 248 249 251 253 255
284 279 272 260 250 245 245 238 238 235 230 228 226 224 223 220 218 217 216 217 217 217 219 219 218 219 219 221 221 222 225 227 227 228 229 231 233 235 237 239 241 243 245 246 248 250 251 253 255
285 279 272 259 250 246 244 241 237 235 232 229 227 224 222 220 217 217 217 217 216 218 219 220 217 217 218 219 221 222 222 224 226 227 229 232 234 235 237 239 241 244 245 247 249 251 252 254 256
286 280 272 262 254 250 247 242 238 237 235 231 227 224 223 221 219 218 218 218 217 218 218 218 216 215 215 217 219 221 221 223 224 226 228 231 233 235 236 238 241 243 245 247 248 250 252 255 257
286 283 278 268 253 250 245 242 240 236 234 230 226 225 223 221 221 221 220 218 219 220 219 216 216 214 214 215 217 218 221 222 225 226 228 231 233 235 237 239 241 243 245 247 249 251 254 256 258
290 284 274 266 255 250 247 245 243 236 234 231 227 226 224 221 221 222 221 220 219 220 219 217 215 214 216 217 218 218 219 222 224 227 229 231 233 235 238 240 242 244 246 247 249 251 254 256 259
288 281 273 259 257 263 258 256 243 238 237 234 230 227 224 223 223 224 223 221 219 218 217 218 218 216 216 218 219 219 220 222 224 226 227 230 232 235 237 239 242 245 247 250 251 252 254 256 259
289 274 268 264 265 272 268 256 247 244 244 237 233 231 228 225 224 224 224 223 221 218 217 219 218 216 217 219 221 221 220 222 224 226 228 229 232 234 236 239 242 244 247 250 252 254 256 258 259
298 282 275 273 270 270 272 260 250 249 249 244 237 235 232 226 225 225 225 224 223 219 216 220 218 217 218 220 223 223 223 223 224 226 229 230 232 234 237 239 242 244 247 250 251 253 256 258 261
306 295 276 277 268 277 282 277 260 253 248 242 238 235 231 228 227 229 229 230 227 222 221 222 221 220 221 223 225 225 225 225 225 226 229 232 234 236 238 241 244 246 248 250 250 253 255 258 260
305 285 277 282 274 265 253 280 279 268 254 246 241 235 229 229 229 232 231 234 232 230 229 228 226 225 225 226 226 226 227 226 227 229 230 233 235 238 240 242 244 247 249 250 250 254 256 257 260
346 316 302 298 295 294 250 276 286 275 264 253 242 236 233 231 234 237 236 237 236 235 233 230 229 230 229 229 231 233 232 231 232 232 234 236 238 240 242 243 245 247 249 251 253 256 257 259 261
20 5 344 326 294 267 251 274 289 275 262 258 249 242 244 242 242 245 243 241 239 238 235 234 233 235 234 233 234 235 237 235 234 236 238 240 241 243 245 246 247 249 251 253 255 256 258 259 261
29 37 22 1 0 315 308 291 282 272 267 257 258 254 254 254 253 254 249 246 243 243 242 240 238 240 240 238 239 240 242 240 239 240 241 243 244 245 247 248 249 252 253 254 256 257 258 260 261
33 21 11 8 8 343 325 311 293 277 268 260 265 265 263 262 262 261 256 252 249 246 246 247 244 242 242 241 242 244 246 244 243 244 244 246 247 249 250 251 250 252 253 253 255 257 257 259 261
39 37 27 10 8 351 335 341 324 311 293 276 267 266 267 270 265 262 259 255 252 252 250 250 250 248 247 248 248 249 248 246 245 244 244 246 249 249 250 252 253 254 255 256 256 257 257 258 260
37 33 26 14 9 5 356 350 328 316 311 302 288 279 276 275 272 267 264 261 259 259 257 255 255 253 254 253 250 249 249 248 245 245 248 248 249 250 252 253 253 256 257 258 258 258 257 258 259
Height
5762 5763 5765 5767 5767 5768 5773 5783 5788 5792 5797 5801 5804 5808 5812 5815 5819 5822 5826 5831 5837 5843 5846 5849 5853 5856 5858 5861 5864 5866 5868 5870 5871 5872 5873 5874 5875 5876 5877 5878 5879 5879 5880 5880 5880 5880 5880 5881 5881
5750 5752 5753 5754 5754 5756 5765 5774 5777 5783 5788 5791 5794 5798 5803 5806 5809 5813 5819 5825 5831 5837 5841 5845 5848 5851 5854 5857 5860 5863 5865 5867 5868 5870 5871 5872 5874 5875 5876 5877 5878 5878 5879 5879 5879 5880 5880 5880 5880
5738 5739 5741 5741 5742 5747 5757 5763 5767 5771 5775 5780 5784 5789 5794 5798 5801 5806 5812 5818 5825 5830 5835 5839 5843 5847 5850 5853 5856 5859 5862 5864 5866 5867 5869 5870 5871 5873 5874 5875 5876 5877 5878 5878 5878 5879 5879 5879 5880
5727 5727 5727 5729 5732 5739 5746 5751 5754 5758 5763 5768 5773 5778 5784 5790 5794 5799 5806 5812 5818 5824 5829 5834 5838 5842 5845 5849 5852 5855 5858 5860 5862 5864 5866 5867 5869 5870 5872 5873 5874 5875 5876 5877 5877 5878 5878 5878 5879
5714 5714 5715 5716 5721 5728 5734 5738 5741 5745 5751 5757 5762 5768 5775 5781 5786 5791 5798 5805 5811 5817 5823 5828 5832 5837 5840 5844 5848 5851 5854 5856 5859 5861 5863 5865 5866 5868 5869 5871 5872 5873 5874 5875 5876 5876 5877 5877 5877
5702 5702 5703 5705 5710 5716 5722 5726 5729 5734 5739 5745 5751 5757 5765 5771 5777 5783 5790 5796 5803 5810 5816 5821 5826 5831 5835 5839 5843 5846 5849 5852 5855 5857 5860 5861 5863 5865 5867 5868 5870 5871 5872 5873 5874 5874 5875 5876 5876
5692 5692 5693 5696 5700 5704 5710 5714 5718 5722 5728 5735 5740 5746 5755 5761 5767 5774 5781 5789 5796 5803 5809 5814 5820 5825 5829 5833 5837 5841 5845 5848 5851 5853 5856 5858 5860 5862 5864 5865 5867 5868 5869 5871 5872 5872 5873 5874 5874
5682 5684 5685 5687 5690 5694 5699 5702 5707 5712 5718 5724 5729 5736 5745 5752 5759 5766 5773 5782 5789 5795 5801 5807 5813 5818 5823 5827 5832 5836 5840 5843 5846 5849 5852 5854 5856 5858 5860 5862 5864 5865 5867 5868 5869 5870 5871 5871 5872
5673 5675 5676 5679 5681 5685 5689 5692 5697 5702 5708 5714 5720 5726 5734 5742 5750 5757 5765 5773 5781 5788 5794 5800 5806 5811 5816 5821 5826 5830 5834 5838 5841 5844 5847 5850 5852 5855 5857 5859 5860 5862 5864 5865 5866 5867 5868 5869 5870
5666 5667 5670 5671 5673 5676 5679 5682 5687 5692 5698 5704 5710 5716 5725 5733 5740 5749 5756 5765 5773 5780 5786 5792 5798 5804 5810 5815 5820 5824 5828 5832 5836 5839 5843 5845 5848 5851 5853 5855 5857 5859 5860 5862 5863 5864 5865 5866 5867
5659 5661 5662 5663 5665 5666 5670 5673 5677 5682 5689 5694 5700 5707 5715 5722 5730 5739 5747 5756 5764 5772 5779 5785 5791 5797 5802 5808 5813 5818 5822 5826 5830 5834 5837 5841 5843 5846 5849 5851 5853 5855 5857 5858 5859 5861 5862 5863 5863
5654 5654 5654 5655 5657 5658 5661 5665 5669 5674 5681 5686 5691 5697 5703 5710 5720 5729 5738 5747 5755 5762 5769 5776 5783 5789 5794 5800 5805 5810 5815 5820 5824 5828 5832 5835 5839 5842 5844 5847 5849 5851 5853 5854 5855 5857 5858 5859 5860
5648 5647 5647 5649 5650 5651 5654 5657 5661 5667 5673 5677 5682 5688 5695 5702 5710 5719 5727 5737 5745 5753 5759 5766 5774 5780 5785 5790 5796 5802 5808 5813 5818 5822 5826 5830 5833 5837 5839 5842 5844 5846 5848 5850 5851 5853 5854 5855 5856
5642 5641 5641 5642 5643 5645 5647 5651 5655 5661 5665 5669 5675 5681 5688 5695 5702 5709 5718 5726 5734 5743 5749 5756 5763 5770 5777 5782 5788 5794 5800 5806 5811 5815 5820 5824 5827 5831 5834 5837 5839 5841 5843 5845 5847 5848 5850 5851 5852
5636 5636 5636 5636 5637 5639 5642 5646 5649 5654 5657 5662 5667 5674 5680 5687 5694 5702 5709 5717 5725 5734 5740 5746 5753 5760 5767 5773 5779 5785 5791 5797 5803 5808 5813 5817 5821 5824 5828 5831 5834 5836 5838 5840 5842 5843 5845 5846 5847
5632 5631 5632 5632 5633 5635 5638 5642 5645 5646 5651 5656 5661 5667 5674 5680 5687 5693 5701 5708 5716 5723 5731 5737 5743 5752 5759 5764 5770 5777 5782 5789 5795 5801 5806 5810 5814 5818 5821 5825 5828 5830 5832 5834 5836 5838 5840 5841 5842
5629 5628 5629 5630 5630 5631 5634 5638 5640 5641 5645 5650 5655 5661 5667 5674 5680 5686 5692 5699 5707 5713 5721 5728 5735 5742 5749 5756 5762 5769 5775 5781 5787 5792 5798 5802 5807 5811 5815 5818 5821 5824 5826 5828 5830 5832 5834 5835 5836
5627 5627 5627 5627 5628 5629 5631 5634 5636 5638 5641 5645 5650 5655 5661 5667 5674 5679 5685 5691 5698 5705 5712 5719 5726 5733 5740 5746 5753 5759 5766 5772 5778 5784 5790 5795 5799 5803 5808 5811 5814 5817 5820 5822 5824 5826 5828 5829 5830
5625 5625 5625 5626 5626 5627 5629 5631 5633 5635 5638 5641 5645 5650 5656 5662 5667 5672 5677 5683 5690 5696 5703 5711 5718 5724 5731 5738 5744 5750 5757 5764 5770 5776 5781 5786 5791 5796 5800 5804 5808 5811 5813 5815 5817 5819 5821 5822 5823
5625 5625 5624 5625 5625 5626 5627 5629 5631 5633 5635 5638 5641 5646 5651 5656 5661 5666 5671 5677 5683 5689 5696 5703 5710 5717 5724 5732 5737 5744 5750 5756 5763 5768 5773 5778 5783 5787 5792 5796 5800 5803 5806 5808 5810 5812 5813 5815 5816
5624 5624 5624 5625 5625 5626 5627 5629 5630 5632 5633 5635 5638 5641 5645 5650 5655 5660 5666 5672 5678 5684 5691 5697 5704 5710 5717 5724 5730 5736 5741 5747 5753 5759 5765 5770 5775 5779 5784 5788 5791 5795 5798 5800 5802 5804 5806 5808 5809
5624 5624 5624 5625 5625 5626 5628 5628 5630 5630 5632 5633 5635 5638 5642 5646 5651 5655 5660 5666 5671 5678 5684 5691 5697 5704 5710 5716 5722 5728 5734 5740 5747 5752 5757 5762 5767 5771 5775 5779 5783 5786 5789 5792 5794 5796 5798 5799 5801
5625 5624 5625 5625 5625 5627 5628 5628 5629 5629 5629 5631 5632 5635 5638 5642 5647 5652 5657 5662 5667 5672 5678 5684 5690 5696 5703 5709 5715 5721 5727 5733 5738 5744 5749 5753 5758 5763 5767 5770 5774 5777 5780 5782 5785 5787 5789 5791 5793
5625 5625 5626 5626 5626 5627 5628 5628 5629 5628 5629 5630 5631 5634 5637 5640 5645 5649 5653 5657 5662 5667 5672 5678 5684 5689 5695 5701 5707 5712 5718 5724 5730 5735 5740 5744 5749 5753 5757 5761 5765 5768 5771 5773 5776 5778 5780 5782 5784
5626 5627 5627 5626 5626 5627 5627 5627 5628 5628 5629 5630 5631 5633 5636 5639 5642 5646 5649 5653 5657 5662 5666 5672 5677 5682 5688 5694 5699 5705 5710 5715 5721 5726 5731 5735 5739 5744 5748 5751 5754 5758 5761 5764 5766 5769 5771 5773 5775
5626 5627 5627 5627 5627 5627 5627 5627 5628 5628 5628 5629 5631 5633 5635 5638 5640 5643 5645 5649 5653 5657 5661 5666 5671 5676 5681 5686 5691 5697 5701 5706 5711 5717 5721 5726 5730 5734 5738 5741 5745 5748 5751 5754 5756 5759 5761 5763 5765
5627 5627 5627 5627 5626 5627 5627 5627 5627 5627 5628 5629 5630 5632 5634 5635 5637 5639 5642 5645 5648 5652 5656 5660 5665 5670 5674 5679 5684 5688 5692 5696 5702 5707 5711 5716 5719 5724 5727 5731 5734 5737 5740 5743 5745 5748 5750 5753 5755
5629 5627 5627 5627 5626 5626 5626 5626 5626 5625 5626 5627 5628 5630 5631 5633 5634 5636 5637 5640 5643 5647 5650 5654 5658 5662 5667 5671 5675 5679 5683 5688 5692 5696 5701 5706 5709 5713 5717 5720 5723 5726 5729 5731 5734 5736 5739 5741 5743
5630 5629 5627 5627 5626 5626 5625 5628 5625 5625 5625 5626 5627 5627 5628 5629 5630 5632 5633 5635 5638 5641 5644 5648 5651 5655 5659 5663 5666 5670 5674 5678 5682 5687 5691 5695 5699 5703 5706 5710 5712 5715 5718 5720 5722 5725 5727 5730 5732
5630 5629 5628 5628 5627 5626 5625 5628 5624 5624 5624 5625 5624 5625 5625 5626 5626 5627 5629 5631 5632 5635 5638 5641 5644 5647 5650 5653 5657 5660 5664 5668 5673 5677 5681 5684 5688 5692 5696 5699 5702 5704 5706 5708 5711 5713 5715 5718 5720